SCP
0 0 0 0 0 0 0 0 0 0 0 0 0 0 0 0 0 0 0 0 0 0 0 0 1 1 1 0 0 0 0 0 0 0 0 0 0 0 0 0 0 0 0
0 0 0 0 0 0 0 0 0 0 0 0 0 0 0 0 0 0 0 0 0 0 0 0 0 0 0 0 0 0 0 0 0 0 0 0 0 0 0 0 0 0 0
0 0 0 0 0 0 0 0 0 0 0 0 0 0 0 0 0 0 0 0 0 0 0 0 0 0 0 0 0 0 0 0 0 0 0 0 0 0 0 0 0 0 0
0 0 0 0 0 0 0 0 0 0 0 0 0 0 0 0 0 0 0 0 0 0 0 0 0 0 0 0 0 0 0 0 0 0 0 0 0 0 0 0 0 0 0
0 0 0 0 0 0 0 0 0 0 0 0 0 0 0 0 0 0 0 0 0 0 0 0 0 0 0 0 0 0 0 0 0 0 0 0 0 0 0 0 0 0 0
0 0 0 0 0 0 0 0 0 0 0 0 0 0 0 0 0 0 0 0 0 0 0 0 0 0 0 0 0 0 0 0 0 0 0 0 0 0 0 0 0 0 0
0 0 0 0 0 0 0 0 0 0 0 0 0 0 0 0 0 0 0 0 0 0 0 0 0 0 0 0 0 0 0 0 0 0 0 0 0 0 0 0 0 0 0
0 0 0 0 0 0 0 0 0 0 0 0 0 0 0 0 0 0 0 0 0 0 0 0 0 0 0 0 0 0 0 0 0 0 0 0 0 0 0 0 0 0 0
0 0 0 0 0 0 0 0 0 0 0 0 0 0 0 0 0 0 0 0 0 0 0 0 0 0 0 0 0 0 0 0 0 0 0 0 0 0 0 0 0 0 0
0 0 0 0 0 0 0 0 0 0 0 0 0 0 0 0 0 0 0 0 0 0 0 0 0 0 0 0 0 0 0 0 0 0 0 0 0 0 0 0 0 0 0
0 0 0 0 0 0 0 0 0 0 0 0 0 0 0 0 0 0 0 0 0 0 0 0 0 0 0 0 0 0 0 0 0 0 0 0 0 0 0 0 0 0 0
0 0 0 0 0 0 0 0 0 0 0 0 0 0 0 0 0 0 0 0 0 0 0 0 0 0 0 0 0 0 0 0 0 0 0 0 0 0 0 0 0 0 0
0 0 0 0 0 0 0 0 0 0 0 0 0 0 0 0 0 0 0 0 0 0 0 0 0 0 0 0 0 0 0 0 0 0 0 0 0 0 0 0 0 0 0
0 0 0 0 0 0 0 0 0 0 0 0 0 0 0 0 0 0 0 0 0 0 0 0 0 0 0 0 0 0 0 0 0 0 0 0 0 0 0 0 0 0 0
0 0 0 0 0 0 0 0 0 0 0 0 0 0 0 0 0 0 0 0 0 0 0 0 0 0 0 0 0 0 0 0 0 0 0 0 0 0 0 0 0 0 0
0 0 0 0 0 0 0 0 0 0 0 0 0 0 0 0 0 0 0 0 0 0 0 0 0 0 0 0 0 0 0 0 0 0 0 0 0 0 0 0 0 0 0
0 0 0 0 0 0 0 0 0 0 0 0 0 0 0 0 0 0 0 0 0 0 0 0 0 0 0 0 0 0 0 0 0 0 0 0 0 0 0 0 0 0 0
0 0 0 0 0 0 0 0 0 0 0 0 0 0 0 0 0 0 0 0 0 0 0 0 0 0 0 0 0 0 0 0 0 0 0 0 0 0 0 0 0 0 0
0 0 0 0 0 0 0 0 0 0 0 0 0 0 0 0 0 0 0 0 0 0 0 0 0 0 0 0 0 0 0 0 0 0 0 0 0 0 0 0 0 0 0
0 0 0 0 0 0 0 0 0 0 0 0 0 0 0 0 0 0 0 0 0 0 0 0 0 0 0 0 0 0 0 0 0 0 0 0 0 0 0 0 0 0 0
0 0 0 0 0 0 0 0 0 0 0 0 0 0 0 0 0 0 0 0 0 0 0 0 0 0 0 0 0 0 0 0 0 0 0 0 0 0 0 0 0 0 0
0 0 0 0 0 0 0 0 0 0 0 0 0 0 0 0 0 0 0 0 0 0 0 0 0 0 0 0 0 0 0 0 0 0 0 0 0 0 0 0 0 0 0
0 0 0 0 0 0 0 0 0 0 0 0 0 0 0 0 0 0 0 0 0 0 0 0 0 0 0 0 0 0 0 0 0 0 0 0 0 0 0 0 0 0 0
0 0 0 0 0 0 0 0 0 0 0 0 0 0 0 0 0 0 0 0 0 0 0 0 0 0 0 0 0 0 0 0 0 0 0 0 0 0 0 0 0 0 0
0 0 0 0 0 0 0 0 0 0 0 0 0 0 0 0 0 0 0 0 0 0 0 0 0 0 0 0 0 0 0 0 0 0 0 0 0 0 0 0 0 0 0
0 0 0 0 0 0 0 0 0 0 0 0 0 0 0 0 0 0 0 0 0 0 0 0 0 0 0 0 0 0 0 0 0 0 0 0 0 0 0 0 0 0 0
Wind_Speed
4 4 4 4 4 4 4 4 4 5 5 6 6 5 5 5 5 4 4 4 4 4 3 2 2 2 1 2 2 3 3 4 7 5 4 5 6 7 6 4 4 3 4
3 4 4 4 4 5 5 5 5 5 5 6 6 6 6 6 6 5 5 5 5 4 4 3 3 2 2 2 3 4 4 5 9 10 5 4 5 6 6 5 3 3 3
3 4 4 4 4 4 4 4 5 5 6 6 6 6 6 6 6 6 6 5 5 5 4 4 3 3 3 3 4 5 5 7 7 9 7 4 4 4 5 4 3 2 2
3 4 4 4 4 4 4 5 5 5 6 6 6 6 6 6 6 6 6 6 6 5 5 5 4 4 4 5 5 7 8 8 8 8 7 5 4 4 4 3 2 1 1
3 3 3 3 4 5 5 5 6 6 6 6 7 7 6 6 5 6 6 7 7 7 6 6 6 7 7 6 6 7 8 8 8 8 7 5 4 4 3 3 3 1 0
3 3 3 3 4 5 5 5 6 6 6 7 7 7 7 6 9 10 7 6 6 7 7 6 7 8 10 11 11 10 10 10 9 7 6 6 4 4 3 3 3 2 1
3 3 3 4 4 4 5 5 6 5 6 7 6 7 7 8 11 11 11 7 7 7 7 6 7 7 8 8 12 13 11 11 10 8 8 6 5 5 5 4 3 3 2
3 3 3 4 4 4 5 5 5 4 5 5 6 6 7 9 11 12 12 9 8 8 8 7 7 7 7 8 10 10 8 7 7 6 7 5 5 4 4 5 4 2 1
3 3 3 3 4 4 4 4 3 4 5 5 5 6 7 7 10 11 10 6 7 8 8 8 8 8 10 12 11 10 9 7 9 10 8 7 7 6 5 4 3 3 2
3 3 3 3 4 4 3 3 3 4 4 4 6 6 6 6 9 10 8 5 6 6 6 8 11 10 11 11 9 9 8 5 5 6 6 5 4 3 4 4 4 3 2
3 4 4 3 3 3 3 3 3 4 4 5 6 6 6 7 8 10 9 5 4 5 5 5 5 10 11 11 8 6 6 5 4 5 4 3 3 2 1 1 3 4 3
4 4 4 3 3 3 4 3 3 4 5 4 5 5 5 6 8 8 10 9 6 5 4 3 4 9 10 9 6 6 8 6 4 4 3 2 2 1 1 1 1 2 3
5 5 4 4 4 4 4 3 3 3 3 3 3 4 4 4 6 10 10 10 9 5 3 4 6 8 8 6 7 8 6 4 4 3 2 0 1 1 1 1 2 2 2
5 4 4 5 5 5 4 3 3 2 3 3 3 3 3 4 4 4 4 5 7 5 4 5 7 8 7 5 6 5 4 3 3 2 1 1 1 2 2 1 1 2 2
4 4 4 4 4 4 4 4 3 1 2 4 2 2 3 2 3 3 3 3 3 3 3 3 4 4 4 4 3 3 3 3 3 2 2 2 2 2 2 1 1 1 1
4 3 3 3 3 3 3 4 7 5 6 6 5 4 2 2 1 4 5 5 4 4 4 3 2 2 2 2 2 2 2 2 2 2 2 2 1 1 2 2 1 1 1
4 3 2 3 3 2 2 3 2 4 6 6 5 5 3 2 3 4 5 5 5 4 3 2 1 1 1 1 1 1 1 1 1 1 2 1 1 1 1 1 1 1 1
4 4 4 3 3 2 2 2 2 2 1 2 2 1 1 2 3 4 5 5 4 4 1 1 0 0 1 1 1 1 1 1 1 1 1 1 1 1 1 1 1 1 2
3 2 2 2 2 2 2 2 2 2 1 1 1 2 2 2 4 4 4 2 1 1 1 0 0 1 1 1 1 1 1 0 0 1 1 1 1 1 1 1 2 3 2
2 3 3 2 1 1 2 2 2 2 2 2 2 2 1 1 2 2 1 0 0 1 1 0 0 1 1 1 1 1 1 0 0 1 1 1 1 1 1 2 2 2 2
2 2 2 1 1 2 2 2 3 3 3 3 3 4 4 2 2 2 2 1 1 1 1 1 1 1 1 1 2 2 2 1 1 1 0 0 1 1 1 1 2 2 3
2 2 2 2 2 2 2 2 3 3 4 4 3 3 6 3 2 2 2 2 2 2 2 2 2 1 2 2 3 3 2 2 1 1 1 0 0 1 1 2 2 3 3
3 3 2 2 2 3 2 2 2 3 3 4 4 3 3 3 3 3 3 3 3 2 2 2 2 2 2 2 3 3 4 4 3 3 2 1 1 1 1 2 3 3 4
3 3 3 3 2 2 3 3 3 3 4 4 4 4 4 4 4 4 4 4 3 3 3 3 3 4 5 3 2 3 3 4 3 3 3 3 2 2 2 2 3 4 4
3 3 3 3 3 3 3 3 3 3 3 4 4 4 4 4 4 4 4 4 4 4 5 4 3 4 6 6 5 5 6 7 5 4 3 2 3 3 3 3 4 4 5
3 3 3 3 3 3 3 4 4 4 4 4 4 5 5 5 5 5 4 4 4 4 5 4 6 7 7 6 7 8 8 8 7 6 3 2 3 4 4 4 6 5 6
Wind_Direction
51 49 47 36 33 36 32 23 20 19 19 23 21 23 25 26 26 35 36 38 43 36 33 49 56 76 110 122 131 129 121 120 123 112 106 117 118 121 119 109 114 117 127
60 54 46 35 34 33 26 19 22 22 23 29 29 30 32 31 30 35 39 40 43 42 34 43 45 72 92 106 123 125 124 121 127 128 121 120 117 127 126 126 131 137 130
64 57 44 36 36 32 24 23 28 34 33 32 34 31 29 30 33 36 43 44 42 38 34 43 48 78 90 95 108 117 119 117 114 125 124 120 112 125 118 122 127 109 152
69 62 53 42 40 37 34 35 36 42 44 38 36 32 32 33 34 40 47 48 45 41 39 46 52 77 100 109 109 115 116 115 116 121 122 122 116 116 119 124 117 117 170
76 66 57 49 47 46 44 41 42 43 45 41 42 35 31 36 35 45 50 52 47 46 45 49 60 76 87 105 115 120 121 119 120 120 122 118 120 128 143 149 140 128 243
81 72 66 58 56 52 50 49 48 42 39 43 41 39 37 37 44 53 56 52 46 47 47 48 59 62 73 86 101 112 123 128 129 126 127 132 139 144 136 135 130 126 214
87 82 79 70 61 55 60 55 51 45 45 44 37 42 40 34 51 58 57 58 52 48 47 50 61 61 69 82 84 85 88 104 119 128 133 141 146 153 142 134 142 152 194
92 86 85 78 70 62 62 56 51 48 49 45 38 40 44 38 53 63 60 59 56 49 47 53 65 59 72 87 88 82 80 84 101 110 126 137 143 149 149 149 154 128 50
92 97 96 92 81 72 67 58 53 58 53 48 40 41 45 31 48 63 65 61 59 49 46 48 59 66 76 88 89 87 81 74 82 96 107 114 122 131 132 105 93 92 67
98 100 105 96 90 82 74 66 59 66 64 60 49 38 42 35 46 64 67 71 64 55 47 45 54 68 71 80 88 92 89 82 85 83 76 70 78 91 117 131 138 128 127
106 95 92 85 87 84 71 62 68 66 64 59 52 37 35 34 43 59 65 70 74 67 57 43 43 67 73 75 82 88 100 105 90 89 80 65 54 50 59 120 155 150 149
102 94 87 73 70 79 78 66 66 76 71 58 53 40 26 24 37 51 63 67 76 77 62 41 47 63 69 70 74 85 92 90 85 79 72 60 49 15 350 9 159 181 184
103 97 86 69 60 63 77 80 71 74 80 65 61 54 28 18 24 40 54 62 64 64 47 48 52 56 56 53 61 76 81 84 86 83 81 31 289 280 344 4 7 16 337
112 104 94 81 65 52 51 63 78 81 96 92 83 72 44 27 20 17 25 38 42 41 29 27 39 48 51 46 45 49 56 83 100 102 94 360 2 19 19 20 19 11 6
112 107 100 91 89 72 59 47 65 55 137 133 128 120 101 59 353 22 50 34 24 20 29 35 32 30 31 28 30 34 41 53 59 49 51 40 29 25 5 8 32 43 41
116 114 111 106 99 95 91 58 37 51 70 97 122 127 96 120 67 43 40 30 26 36 56 41 31 41 51 51 51 38 38 48 56 65 61 52 37 24 4 2 34 51 329
137 141 135 132 131 131 123 116 85 26 46 68 92 105 109 105 60 44 34 29 37 60 62 35 24 41 77 91 93 89 63 33 72 79 69 50 31 15 14 1 2 2 329
143 151 150 159 163 169 169 160 148 138 88 2 3 31 62 28 17 21 31 43 29 32 46 38 25 122 127 130 126 118 104 46 49 43 25 11 11 12 3 344 333 317 304
139 147 154 164 170 176 175 172 170 164 163 204 314 322 321 344 355 8 41 62 39 0 354 339 191 153 148 159 162 145 128 107 14 29 4 353 358 17 346 322 314 313 311
146 162 155 155 172 185 181 174 182 189 194 206 229 248 292 26 358 341 354 303 244 284 275 233 195 159 152 150 143 118 79 43 34 70 25 360 358 11 318 308 307 303 294
169 178 174 156 187 193 183 184 193 195 203 213 230 235 199 185 224 252 256 243 218 204 198 177 156 146 150 147 134 122 121 139 152 148 148 360 6 348 319 308 305 305 304
185 195 202 209 205 211 213 205 195 199 208 215 234 244 217 207 222 242 249 234 217 208 197 177 171 182 178 170 161 151 149 157 170 169 177 207 330 312 322 327 323 315 312
195 204 215 220 215 217 221 223 208 205 212 215 217 222 217 217 224 226 231 231 222 213 203 183 174 184 189 189 184 173 174 191 200 193 189 214 261 282 294 301 306 310 307
202 210 213 219 222 219 225 235 226 217 215 212 215 217 220 221 221 223 225 224 215 213 207 197 194 198 202 201 201 197 198 204 201 202 200 209 238 263 276 287 293 296 295
209 211 205 209 215 218 223 234 235 229 222 215 216 221 225 222 223 226 223 218 214 216 220 215 211 212 216 215 212 211 209 208 208 204 204 211 241 256 267 275 281 288 287
215 216 213 210 215 220 222 230 235 233 225 221 219 221 222 221 223 224 220 217 217 221 226 226 223 222 224 224 221 216 215 219 222 220 208 218 241 259 266 270 279 280 283